Simultaneous Nadir Overpasses (SNOs) Predictions

Prediction of SNOs between GOES-16 and AQUA Satellite Orbit:

Table of predicted SNOs for the next 14.0 days since TLE Epoch: 5/28/2022
Index Date Time (GOES-16) GOES-16 Lat,Lon AQUA Lat,Lon Distance(km) Time Diff (sec)
1 05/28/2022 18:36:02 0.00, -75.19 0.09, -74.79 45.93 80
2 05/30/2022 18:23:31 0.01, -75.20 0.76, -71.75 392.54 80
3 05/31/2022 06:47:21 -0.00, -75.19 0.35, -76.87 191.19 80
4 06/02/2022 06:32:09 -0.01, -75.20 -0.29, -73.82 156.04 80
5 06/02/2022 18:56:08 0.01, -75.20 -0.79, -78.99 430.89 80
6 06/04/2022 18:40:56 0.01, -75.22 -0.13, -75.95 82.74 80
7 06/06/2022 18:31:03 0.01, -75.24 0.50, -72.89 266.34 80
8 06/07/2022 06:52:13 -0.00, -75.24 0.61, -78.02 316.62 80
9 06/09/2022 06:37:00 -0.00, -75.27 -0.04, -74.97 33.40 80
